Location: Saluda
(35.2377°N, 82.3468°W)
Time: 05:38:28
(UTC+00:00)

Vanguard 2 - Pass Details

Date: 08 October 2022
Orbit: 553 x 2933 km, 32.9° (Epoch: 04 December)

Event Time Altitude Azimuth Distance (km) Brightness Sun altitude
Rises 14:02:23 0° 188° (S) 3,269 11.1 28.4°
Reaches altitude 10° 14:05:57 10° 161° (SSE) 2,679 11.2 29.1°
Maximum altitude 14:09:02 14° 132° (SE) 2,726 12.1 29.6°
Drops below altitude 10° 14:12:45 10° 105° (ESE) 3,391 12.2 30.2°
Sets 14:18:30 0° 84° (E) 4,971 12.3 31.2°
